Provincetown, MA

1:46 AM EDT on March 23, 2017 (GMT -0400)
Provincetown Municipal

Weather History for KPVC - January, 2012

Change the Weather History Date:

Thursday, January 5, 2012

  Actual Average Record
Temperature  
Mean Temperature 32 °F -  
Max Temperature 37 °F 37 °F 60 °F (2007)
Min Temperature 28 °F 27 °F 16 °F (1958)
Degree Days  
Heating Degree Days 32    
Moisture  
Dew Point 17 °F    
Average Humidity 53    
Maximum Humidity 60    
Minimum Humidity 47    
Precipitation  
Precipitation 0.00 in - - ()
Sea Level Pressure  
Sea Level Pressure 29.85 in    
Wind  
Wind Speed 15 mph (West)    
Max Wind Speed 23 mph    
Max Gust Speed 28 mph    
Visibility 10 miles    
Events      
Averages and records for this station are not official NWS values.
T = Trace of Precipitation, MM = Missing Value Source: NWS Daily Summary

Daily Weather History Graph

Daily Weather History Graph

Search for Another Location

Airport or City:

Trip Planner

Search our weather history database for the weather conditions in past years. The results will help you decide how hot, cold, wet, or windy it might be!

Date:

Astronomy

Jan. 05, 2012 Rise Set
Actual Time 7:09 AM EST 4:23 PM EST
Civil Twilight 6:37 AM EST 4:54 PM EST
Nautical Twilight 6:02 AM EST 5:29 PM EST
Astronomical Twilight 5:28 AM EST 6:03 PM EST
Moon 1:24 PM EST (1/5) 3:51 AM EST (1/5)
Length of Visible Light 10h 16m
Length of Day
9h 13m
Waxing Gibbous, 87% of the Moon is Illuminated
Jan 5
Waxing Gibbous
Jan 9
Full
Jan 16
Last Quarter
Jan 23
New
Jan 30
First Quarter

Hourly Weather History & Observations

Time (EST) Temp. Windchill Dew Point Humidity Pressure Visibility Wind Dir Wind Speed Gust Speed Precip Events Conditions
12:35 AM 28.4 °F 16.6 °F 12.2 °F 51% 29.93 in 10.0 mi West 16.1 mph 24.2 mph N/A   Overcast
12:55 AM 28.4 °F 15.4 °F 14.0 °F 55% 29.92 in 10.0 mi West 19.6 mph 23.0 mph N/A   Overcast
1:15 AM 28.4 °F 15.8 °F 12.2 °F 51% 29.92 in 10.0 mi West 18.4 mph 23.0 mph N/A   Overcast
1:35 AM 28.4 °F 16.2 °F 14.0 °F 55% 29.91 in 10.0 mi West 17.3 mph 23.0 mph N/A   Overcast
1:55 AM 28.4 °F 16.2 °F 10.4 °F 47% 29.91 in 10.0 mi West 17.3 mph 21.9 mph N/A   Overcast
2:15 AM 28.4 °F 16.6 °F 10.4 °F 47% 29.90 in 10.0 mi West 16.1 mph 24.2 mph N/A   Overcast
2:35 AM 28.4 °F 16.2 °F 10.4 °F 47% 29.90 in 10.0 mi WSW 17.3 mph - N/A   Overcast
2:55 AM 28.4 °F 16.6 °F 12.2 °F 51% 29.89 in 10.0 mi West 16.1 mph 21.9 mph N/A   Overcast
3:35 AM 28.4 °F 16.2 °F 12.2 °F 51% 29.88 in 10.0 mi WSW 17.3 mph 21.9 mph N/A   Overcast
4:35 AM 28.4 °F 17.5 °F 12.2 °F 51% 29.88 in 10.0 mi West 13.8 mph 17.3 mph N/A   Overcast
4:55 AM 28.4 °F 18.5 °F 12.2 °F 51% 29.87 in 10.0 mi West 11.5 mph - N/A   Overcast
5:15 AM 28.4 °F 19.1 °F 12.2 °F 51% 29.86 in 10.0 mi West 10.4 mph - N/A   Overcast
5:35 AM 28.4 °F 19.1 °F 12.2 °F 51% 29.85 in 10.0 mi West 10.4 mph - N/A   Overcast
5:55 AM 28.4 °F 19.1 °F 12.2 °F 51% 29.85 in 10.0 mi West 10.4 mph - N/A   Overcast
6:15 AM 28.4 °F 19.7 °F 14.0 °F 55% 29.85 in 10.0 mi West 9.2 mph - N/A   Overcast
6:35 AM 28.4 °F 19.7 °F 14.0 °F 55% 29.85 in 10.0 mi West 9.2 mph - N/A   Overcast
6:55 AM 28.4 °F 19.1 °F 14.0 °F 55% 29.84 in 10.0 mi West 10.4 mph - N/A   Overcast
7:15 AM 28.4 °F 19.1 °F 14.0 °F 55% 29.85 in 10.0 mi West 10.4 mph - N/A   Overcast
7:55 AM 28.4 °F 18.5 °F 15.8 °F 59% 29.86 in 10.0 mi West 11.5 mph - N/A   Overcast
8:15 AM 30.2 °F 22.6 °F 15.8 °F 55% 29.86 in 10.0 mi West 8.1 mph - N/A   Overcast
8:35 AM 30.2 °F 21.9 °F 15.8 °F 55% 29.86 in 10.0 mi West 9.2 mph - N/A   Overcast
8:55 AM 30.2 °F 21.9 °F 15.8 °F 55% 29.86 in 10.0 mi West 9.2 mph - N/A   Overcast
9:15 AM 30.2 °F 21.3 °F 15.8 °F 55% 29.87 in 10.0 mi West 10.4 mph - N/A   Overcast
9:35 AM 30.2 °F 20.8 °F 17.6 °F 60% 29.87 in 10.0 mi West 11.5 mph - N/A   Mostly Cloudy
10:15 AM 32.0 °F 22.1 °F 17.6 °F 55% 29.85 in 10.0 mi West 13.8 mph - N/A   Scattered Clouds
10:35 AM 33.8 °F 24.8 °F 17.6 °F 52% 29.84 in 10.0 mi West 12.7 mph - N/A   Clear
10:55 AM 33.8 °F 24.3 °F 19.4 °F 56% 29.82 in 10.0 mi West 13.8 mph 18.4 mph N/A   Clear
11:15 AM 35.6 °F 26.2 °F 19.4 °F 52% 29.80 in 10.0 mi WSW 15.0 mph 18.4 mph N/A   Clear
11:35 AM 37.4 °F 29.3 °F 19.4 °F 48% 29.79 in 10.0 mi West 12.7 mph 19.6 mph N/A   Clear
12:15 PM 37.4 °F 28.5 °F 21.2 °F 52% 29.76 in 10.0 mi West 15.0 mph - N/A   Clear
12:55 PM 37.4 °F 29.3 °F 21.2 °F 52% 29.75 in 10.0 mi West 12.7 mph - N/A   Clear
1:15 PM 37.4 °F 29.8 °F 21.2 °F 52% 29.75 in 10.0 mi West 11.5 mph 17.3 mph N/A   Clear
1:35 PM 37.4 °F 29.8 °F 21.2 °F 52% 29.75 in 10.0 mi West 11.5 mph 17.3 mph N/A   Clear
1:55 PM 37.4 °F 29.3 °F 21.2 °F 52% 29.76 in 10.0 mi West 12.7 mph 20.7 mph N/A   Partly Cloudy
2:15 PM 37.4 °F 29.8 °F 21.2 °F 52% 29.76 in 10.0 mi West 11.5 mph 19.6 mph N/A   Scattered Clouds
2:35 PM 37.4 °F 29.8 °F 19.4 °F 48% 29.76 in 10.0 mi West 11.5 mph 21.9 mph N/A   Scattered Clouds
3:35 PM 37.4 °F 28.2 °F 19.4 °F 48% 29.78 in 10.0 mi West 16.1 mph 21.9 mph N/A   Mostly Cloudy
3:55 PM 37.4 °F 29.3 °F 19.4 °F 48% 29.78 in 10.0 mi West 12.7 mph 23.0 mph N/A   Partly Cloudy
4:15 PM 37.4 °F 28.9 °F 19.4 °F 48% 29.79 in 10.0 mi West 13.8 mph 19.6 mph N/A   Mostly Cloudy
4:35 PM 35.6 °F 26.6 °F 19.4 °F 52% 29.80 in 10.0 mi West 13.8 mph - N/A   Scattered Clouds
4:55 PM 37.4 °F 27.8 °F 19.4 °F 48% 29.81 in 10.0 mi West 17.3 mph 23.0 mph N/A   Partly Cloudy
5:15 PM 35.6 °F 25.5 °F 19.4 °F 52% 29.82 in 10.0 mi West 17.3 mph 24.2 mph N/A   Clear
5:35 PM 35.6 °F 24.8 °F 21.2 °F 56% 29.82 in 10.0 mi West 19.6 mph 25.3 mph N/A   Partly Cloudy
6:15 PM 37.4 °F 27.2 °F 19.4 °F 48% 29.84 in 10.0 mi West 19.6 mph 26.5 mph N/A   Mostly Cloudy
6:35 PM 37.4 °F 26.4 °F 21.2 °F 52% 29.84 in 10.0 mi West 23.0 mph 27.6 mph N/A   Overcast
6:55 PM 35.6 °F 24.8 °F 21.2 °F 56% 29.85 in 10.0 mi West 19.6 mph 26.5 mph N/A   Overcast
7:15 PM 35.6 °F 25.5 °F 21.2 °F 56% 29.86 in 10.0 mi West 17.3 mph 26.5 mph N/A   Overcast
7:35 PM 35.6 °F 25.9 °F 21.2 °F 56% 29.87 in 10.0 mi West 16.1 mph 21.9 mph N/A   Overcast
7:55 PM 35.6 °F 24.8 °F 19.4 °F 52% 29.87 in 10.0 mi West 19.6 mph 25.3 mph N/A   Overcast
8:35 PM 35.6 °F 25.5 °F 19.4 °F 52% 29.87 in 10.0 mi West 17.3 mph 21.9 mph N/A   Overcast
8:55 PM 35.6 °F 25.5 °F 21.2 °F 56% 29.88 in 10.0 mi West 17.3 mph 20.7 mph N/A   Overcast
9:15 PM 35.6 °F 24.8 °F 19.4 °F 52% 29.88 in 10.0 mi West 19.6 mph 24.2 mph N/A   Overcast
9:55 PM 35.6 °F 26.6 °F 19.4 °F 52% 29.89 in 10.0 mi West 13.8 mph 21.9 mph N/A   Overcast
10:15 PM 35.6 °F 26.6 °F 21.2 °F 56% 29.89 in 10.0 mi WNW 13.8 mph 19.6 mph N/A   Overcast
10:35 PM 35.6 °F 26.2 °F 21.2 °F 56% 29.90 in 10.0 mi NW 15.0 mph 19.6 mph N/A   Overcast
11:15 PM 33.8 °F 23.9 °F 21.2 °F 60% 29.91 in 10.0 mi NW 15.0 mph 19.6 mph N/A   Overcast
11:35 PM 33.8 °F 23.2 °F 19.4 °F 56% 29.90 in 10.0 mi WNW 17.3 mph 21.9 mph N/A   Overcast
11:55 PM 33.8 °F 23.9 °F 17.6 °F 52% 29.90 in 10.0 mi WNW 15.0 mph 21.9 mph N/A   Mostly Cloudy